Temperature
23 22 22 22 22 23 23 24 25 25 25 25 25 25 24 23 21 19 19 19 19 18 18 18 18 18 18 18 18 18 18 18 18 18 18 18 18 18 18 18 18 18 18 18 18 18 18 18 18
22 22 22 23 23 23 23 24 24 25 25 25 25 25 24 22 20 19 19 19 19 18 18 18 18 18 18 18 17 17 17 17 17 18 18 18 18 18 18 18 18 18 18 18 18 18 18 18 18
22 22 23 23 23 23 23 24 24 25 25 25 25 24 23 21 20 19 19 19 19 18 18 18 18 18 18 18 17 17 17 17 17 17 17 17 17 18 18 18 18 18 18 18 18 18 18 18 18
22 23 24 24 24 25 25 25 25 25 25 25 24 23 21 21 20 19 19 19 19 18 18 18 18 18 18 18 17 17 17 17 17 17 17 17 17 17 17 17 17 18 18 18 18 18 18 18 18
23 24 24 24 24 25 26 26 26 25 25 25 24 22 21 20 20 20 19 19 19 18 18 18 18 18 18 18 18 17 17 17 17 17 17 17 17 17 17 17 17 17 17 17 17 17 17 17 17
24 25 24 23 24 25 26 26 26 25 25 25 24 22 21 20 20 20 20 19 19 18 18 18 18 18 18 18 18 17 17 17 17 17 17 17 17 17 17 17 17 17 17 17 17 17 17 17 17
24 24 24 24 24 25 26 26 25 25 25 25 24 22 21 20 20 20 20 19 19 19 18 18 18 18 18 18 18 18 17 17 17 17 17 17 17 17 17 17 17 17 17 17 17 17 17 17 17
25 24 24 24 24 24 26 25 25 25 25 24 24 23 21 20 20 20 20 20 19 19 19 18 18 18 18 18 18 18 17 17 17 17 17 17 17 17 17 17 17 17 17 17 17 17 17 17 17
25 24 24 24 24 25 26 25 25 25 24 24 23 23 21 21 20 20 20 20 19 19 19 19 19 18 18 18 18 17 17 17 17 17 17 17 17 17 17 17 17 17 17 17 17 17 16 16 16
25 23 24 25 26 25 25 25 25 25 24 24 23 22 21 21 20 20 20 20 20 19 19 19 19 19 18 18 18 17 17 17 17 17 17 16 16 16 17 16 17 17 17 16 16 16 16 16 16
26 24 25 26 26 26 25 25 25 25 24 24 23 22 21 21 21 21 21 20 20 20 19 19 19 19 18 18 18 17 17 17 17 17 17 16 16 16 16 16 16 16 16 16 16 16 16 16 16
26 26 26 26 25 25 25 25 25 25 24 24 23 22 22 21 21 21 21 21 20 20 19 19 19 19 19 18 18 17 17 17 17 17 17 16 16 16 16 16 16 16 16 16 16 16 16 16 16
25 25 25 25 25 25 25 25 25 24 24 24 23 22 22 22 21 21 21 21 20 20 19 19 19 19 19 18 18 18 17 17 17 17 17 16 16 16 16 16 16 16 16 16 16 16 16 16 16
26 26 25 25 25 25 25 25 24 24 24 24 23 22 22 22 21 21 21 21 20 20 19 19 19 19 19 18 18 18 18 17 17 17 17 17 17 16 16 16 16 16 16 16 16 16 16 16 16
26 25 25 25 25 25 25 23 24 24 24 24 23 23 22 22 21 21 21 20 20 20 19 19 19 19 19 19 18 18 18 17 17 17 17 17 17 16 16 16 16 16 16 16 16 16 16 15 15
26 25 24 25 26 25 24 22 24 24 24 24 23 23 22 22 21 21 20 20 20 20 20 19 19 19 19 18 18 18 18 17 17 17 17 17 17 17 16 16 16 16 16 16 16 16 15 15 15
25 24 24 25 26 26 24 23 24 24 24 24 23 23 22 22 21 21 20 20 20 20 19 19 19 19 18 18 18 18 18 17 17 17 17 17 17 17 16 16 16 16 16 16 15 15 15 15 15
23 24 24 24 25 25 24 23 24 24 24 24 23 23 22 22 21 21 20 20 19 19 19 19 19 18 18 18 18 18 18 17 17 17 17 17 17 16 16 16 16 16 16 16 15 15 15 15 15
25 25 24 25 26 25 24 24 24 24 24 23 23 23 22 21 21 20 20 20 19 19 19 19 18 18 18 18 18 18 17 17 17 17 17 17 17 16 16 16 16 16 16 15 15 15 15 15 15
24 24 24 24 25 25 24 23 24 24 23 23 23 22 22 21 20 20 19 19 19 18 18 18 18 18 18 18 18 17 17 17 17 17 17 16 16 16 16 16 16 16 15 15 15 15 15 15 15
24 23 23 23 24 24 23 22 23 23 23 23 22 22 22 21 20 19 19 18 18 18 18 18 18 18 17 17 17 17 17 17 17 16 16 16 16 16 16 16 16 16 16 15 15 15 15 15 15
23 24 24 24 23 22 23 21 22 23 22 22 22 22 21 21 20 19 19 18 18 18 18 17 17 17 17 17 17 17 17 17 16 16 16 16 16 16 16 16 16 16 15 15 15 15 15 14 14
24 24 24 24 23 22 23 22 22 23 22 22 22 22 21 21 20 19 19 18 18 17 17 17 17 17 17 17 17 17 17 16 16 16 16 16 16 16 16 16 16 15 15 15 15 15 15 14 14
24 24 24 23 22 21 22 22 21 22 22 22 22 22 21 20 20 19 19 18 17 17 17 17 17 17 16 16 16 16 16 16 16 16 15 15 15 15 15 15 15 15 15 15 15 14 14 14 14
23 22 21 21 20 21 23 22 21 22 23 22 21 21 21 20 19 19 18 17 17 17 16 16 16 16 16 16 16 16 16 16 16 15 15 15 15 15 15 15 15 15 15 15 15 14 14 14 14
23 22 20 20 20 22 23 22 21 22 22 22 21 21 20 19 19 18 18 17 17 16 16 16 16 16 16 15 15 15 15 15 15 15 15 15 15 15 15 15 14 14 14 14 14 14 14 14 14
22 22 23 21 21 21 22 22 22 22 21 21 21 20 20 19 18 18 17 17 16 16 15 15 15 15 15 15 15 15 15 15 15 15 15 15 14 14 14 14 14 14 14 14 14 14 14 14 14
22 22 21 21 20 20 21 21 20 20 20 20 20 20 19 18 18 17 16 16 16 15 15 15 15 15 14 14 14 14 14 14 14 14 14 14 14 14 14 14 14 14 14 14 14 13 13 13 13
21 21 21 21 21 20 20 20 21 20 20 20 20 19 18 17 17 17 16 15 15 15 15 15 15 14 14 14 14 14 14 14 14 14 14 14 14 14 14 13 13 13 13 13 13 13 13 13 13
22 22 21 20 20 21 20 19 21 20 20 20 19 18 18 17 16 16 15 15 15 15 14 14 14 14 14 14 13 13 14 14 13 13 13 13 13 13 13 13 13 13 13 13 13 13 13 13 13
Wind_Speed
10 10 6 2 2 1 5 7 8 7 8 8 9 10 12 13 9 8 3 4 8 10 13 12 12 11 11 12 12 12 12 12 12 13 13 14 14 14 14 13 13 13 13 14 13 13 12 12 11
10 8 4 3 1 3 6 7 8 8 6 6 9 11 13 12 11 8 4 5 9 11 13 12 11 11 11 11 11 11 11 12 12 13 13 13 14 14 14 13 13 13 13 13 13 13 12 11 11
11 8 3 2 3 4 6 7 6 7 5 6 8 11 8 7 9 5 5 6 10 12 13 12 11 11 11 10 11 11 11 12 12 13 13 13 14 14 14 13 13 13 13 13 13 12 12 11 11
6 3 2 1 6 7 7 7 6 7 6 7 9 9 9 8 6 7 7 8 10 12 13 12 11 11 11 10 10 11 11 12 12 12 13 13 13 13 14 14 14 13 13 13 12 12 12 11 10
4 2 1 4 6 7 6 6 6 7 7 9 11 11 10 9 10 9 7 9 9 10 13 12 11 11 11 11 11 11 11 12 12 12 12 13 14 14 13 13 13 13 13 12 12 12 12 11 10
3 2 1 4 6 7 6 5 7 8 8 8 10 11 8 8 8 7 8 7 8 9 11 12 12 12 11 11 11 11 11 11 11 11 12 13 14 14 14 13 13 12 12 12 11 11 11 11 10
2 2 2 6 5 6 6 6 6 6 7 6 7 10 8 8 7 7 7 7 7 8 9 10 11 12 12 12 11 11 11 10 10 11 11 11 12 13 13 12 12 11 11 11 11 10 10 9 9
2 1 2 4 5 5 6 6 5 6 7 6 6 7 8 8 7 7 7 7 6 6 7 8 9 11 11 11 11 10 10 9 9 9 9 9 10 11 12 11 11 10 10 9 9 8 8 7 6
2 0 2 3 4 6 7 6 6 6 8 8 9 11 12 11 9 7 6 6 5 6 6 7 7 8 10 10 10 9 9 7 7 7 7 7 7 8 9 10 10 9 8 7 6 5 5 4 3
1 1 3 4 4 6 6 5 4 5 7 8 9 12 13 11 8 7 7 7 7 5 6 5 5 7 7 7 8 6 7 6 5 6 7 6 7 8 8 8 8 7 6 5 4 3 3 3 2
2 2 3 5 5 5 5 4 4 5 5 6 7 10 10 9 7 6 6 6 6 6 5 5 5 6 6 4 5 4 5 4 4 6 9 8 7 7 6 6 5 5 4 3 3 1 2 4 5
3 3 3 4 4 3 3 4 5 5 5 6 8 9 8 7 6 5 5 6 7 7 5 4 4 5 6 5 3 3 3 3 3 4 8 6 3 3 3 3 3 3 3 2 1 1 4 5 6
3 3 4 4 3 2 3 4 3 4 5 7 8 8 7 6 5 4 5 5 6 6 5 4 4 5 6 5 2 4 3 3 4 4 5 6 3 3 3 3 3 3 3 2 2 3 4 4 5
3 4 4 3 3 2 3 3 2 3 4 6 7 6 6 6 5 4 4 5 5 5 5 3 3 4 5 5 3 3 4 4 4 3 4 6 4 3 3 3 2 2 3 3 3 4 3 3 4
4 4 4 3 3 3 3 1 1 2 4 5 6 6 6 6 5 5 5 4 4 5 6 4 3 3 4 4 4 4 4 4 3 2 4 6 6 5 4 3 2 2 4 4 4 4 3 3 3
6 6 5 4 4 4 3 2 2 2 4 4 5 6 5 4 5 5 5 4 4 4 6 6 4 3 3 4 4 3 4 4 3 3 4 5 7 7 4 2 2 3 4 3 2 2 2 3 3
5 5 6 6 5 4 4 2 3 3 4 4 4 6 6 5 4 4 5 5 4 4 5 5 4 4 4 4 3 3 3 3 3 4 4 4 5 6 4 2 2 4 3 2 2 3 2 2 2
4 6 6 5 5 4 4 3 4 4 3 3 4 4 5 5 5 5 5 5 4 3 4 5 4 4 4 2 3 3 3 2 3 3 4 4 4 5 4 2 3 4 3 2 2 2 2 1 0
6 6 4 2 3 4 4 3 4 4 4 3 4 4 5 5 5 6 5 5 4 3 3 4 4 3 4 2 2 2 2 2 2 3 3 3 3 4 3 2 2 2 2 2 2 2 2 2 2
7 6 5 2 2 3 3 4 2 4 4 3 2 3 3 4 4 4 5 4 3 2 1 2 2 3 4 3 3 2 3 2 2 2 2 3 3 3 3 2 2 2 2 2 2 2 1 1 2
7 6 5 4 4 5 5 5 5 4 3 3 3 2 2 4 5 5 4 4 3 1 1 1 2 3 3 3 3 3 3 2 2 2 1 2 2 3 3 3 2 1 2 2 1 2 2 1 1
7 4 5 5 6 5 6 4 4 5 5 5 4 3 3 2 4 5 5 4 3 2 1 1 2 2 3 3 2 3 3 2 2 2 1 1 2 2 2 2 1 2 1 1 1 2 1 2 1
5 5 7 8 8 9 9 5 3 5 4 5 5 4 4 3 3 4 5 5 4 3 2 2 2 2 2 2 2 2 2 2 2 2 2 2 1 1 2 2 2 2 1 1 1 2 2 1 0
5 7 9 9 6 8 9 6 2 2 2 3 4 4 4 3 3 3 4 5 4 3 3 2 2 2 2 1 1 2 2 2 3 2 2 2 1 1 1 2 1 1 1 1 1 1 1 0 0
6 5 4 4 6 6 4 3 2 3 4 4 4 2 3 4 3 3 4 5 4 4 2 1 2 2 2 1 2 1 1 1 2 3 3 2 1 1 1 1 0 0 0 1 1 0 1 1 1
7 6 4 3 4 3 4 2 3 4 6 5 5 4 4 4 3 4 5 4 3 3 2 1 1 1 1 1 1 1 1 1 1 1 2 2 1 1 2 2 1 0 1 1 1 0 0 0 0
6 5 6 7 8 7 3 4 5 6 6 5 5 4 4 4 5 5 4 4 4 3 2 2 2 2 1 1 1 1 1 1 0 1 1 2 2 1 2 1 1 1 1 0 0 0 1 0 0
6 6 4 5 4 5 3 3 2 5 4 4 4 5 5 4 4 4 4 4 3 3 2 1 2 2 2 1 1 1 1 1 1 1 1 1 2 2 2 2 1 1 1 1 1 0 0 0 0
6 7 5 5 5 4 3 0 3 4 4 4 5 5 5 5 4 4 4 3 3 3 3 2 1 2 2 1 1 1 1 1 2 1 1 1 1 2 2 1 1 0 0 1 1 0 1 1 1
5 6 6 5 5 5 4 0 5 6 5 6 6 5 5 5 4 4 4 3 3 3 2 2 1 2 2 1 1 1 1 1 1 1 0 0 0 1 1 1 1 1 1 1 0 1 1 2 1
Wind_Direction
277 261 257 266 273 100 68 65 67 54 58 53 48 61 65 53 55 88 131 92 94 94 93 78 68 69 69 71 72 71 69 68 66 65 64 65 66 71 73 75 76 74 72 71 74 78 76 75 73
280 279 277 247 262 83 72 67 67 62 64 69 62 64 71 66 73 95 108 93 94 90 86 78 72 71 72 71 72 73 71 70 71 68 67 68 69 71 72 73 75 74 72 71 72 76 76 76 73
268 267 270 270 45 74 82 77 83 81 62 69 72 61 56 66 78 99 119 104 90 87 86 81 76 74 76 76 75 74 72 73 72 70 68 70 73 73 74 75 75 74 74 73 71 75 76 74 69
273 266 247 69 68 66 88 103 97 88 71 67 79 75 70 61 86 115 123 104 95 95 94 87 81 79 80 80 79 78 76 76 74 73 72 73 75 76 75 74 74 74 74 74 73 72 72 71 67
248 262 176 93 81 76 69 85 94 85 79 78 85 88 85 80 96 111 108 101 102 104 104 98 90 85 84 83 81 80 81 81 79 77 75 77 77 77 76 75 74 74 75 76 75 72 70 69 65
270 259 110 94 85 82 80 75 83 91 88 87 97 99 96 108 107 109 101 99 103 106 111 113 104 96 93 90 87 85 85 85 85 84 82 82 82 81 81 78 76 75 77 79 78 76 73 71 66
282 305 96 103 94 80 72 69 76 87 83 83 96 102 112 122 123 118 112 107 104 109 114 118 124 113 102 97 94 93 93 94 93 91 91 89 89 88 88 83 81 81 82 82 82 80 76 72 67
282 326 84 94 103 93 86 85 78 82 85 85 84 102 123 131 131 124 122 117 116 119 117 122 124 124 121 111 106 105 106 108 108 105 102 100 101 99 95 90 87 88 88 87 89 86 82 75 65
276 294 76 82 98 107 105 97 94 97 88 79 75 93 120 132 135 132 127 117 108 104 112 116 126 127 124 122 123 127 122 122 124 125 120 118 113 109 103 97 95 95 97 95 97 96 94 86 65
204 85 86 85 88 101 106 106 109 114 104 102 102 110 125 137 142 146 142 136 131 123 114 119 121 120 114 117 130 137 128 130 136 128 123 116 103 98 102 108 108 107 107 105 105 114 106 78 41
133 108 82 78 82 98 113 114 101 101 102 106 115 125 133 143 150 149 138 133 126 115 104 117 117 113 113 111 114 110 112 123 108 99 103 99 101 109 111 118 120 111 105 97 85 79 61 62 57
120 100 84 94 84 94 108 100 87 82 88 102 110 125 138 145 143 139 132 127 121 116 116 112 116 113 109 103 105 110 105 99 83 85 104 104 95 97 100 97 101 103 87 66 55 60 67 60 64
142 133 109 105 113 122 109 107 95 90 94 104 115 127 140 144 138 128 116 112 116 123 124 113 115 116 113 104 115 110 99 94 97 85 97 102 93 92 88 81 78 78 76 60 35 52 57 53 50
154 149 142 139 147 145 121 106 116 108 113 123 126 135 142 141 137 127 120 115 114 123 121 116 119 111 115 122 131 106 107 105 98 103 113 110 102 93 93 88 72 68 71 65 50 56 55 67 64
185 172 164 172 186 165 129 101 143 145 148 148 145 138 142 146 143 140 139 130 131 127 123 118 109 103 109 113 106 105 94 96 95 95 110 114 107 93 87 82 72 59 56 59 55 50 46 70 74
203 204 196 192 205 182 181 191 148 161 167 161 147 137 130 130 137 133 132 124 132 131 122 125 119 104 94 98 95 101 94 89 89 85 72 87 99 97 86 83 78 76 64 49 55 70 52 62 67
224 223 208 189 197 187 187 191 147 166 168 160 156 144 145 145 138 126 127 122 111 115 118 123 114 111 105 94 98 94 98 93 78 77 65 63 78 95 93 82 79 84 69 45 41 58 53 65 67
227 239 229 193 181 183 198 186 161 168 173 164 150 144 143 141 136 119 104 101 99 103 110 115 114 114 110 102 106 93 81 81 83 82 81 72 70 84 91 80 71 75 75 60 46 50 38 62 66
260 266 259 199 174 193 214 216 174 172 180 173 162 149 146 138 126 121 113 105 104 86 94 108 120 127 119 110 110 111 107 91 77 74 74 85 84 86 95 82 75 77 86 75 67 52 37 29 44
263 275 278 236 208 232 224 238 198 176 180 164 147 144 142 139 129 125 122 116 108 113 98 108 118 122 117 122 122 113 103 98 92 75 59 61 67 76 94 97 105 106 100 82 74 86 71 22 43
249 251 261 266 262 245 243 243 208 183 177 169 170 169 161 156 149 140 128 122 111 114 165 129 106 101 107 104 101 100 96 98 90 83 62 46 48 61 67 83 85 98 98 109 115 85 83 71 1
253 255 262 263 267 254 239 252 207 170 178 181 180 176 163 160 147 146 143 135 136 124 121 102 105 105 104 104 108 146 142 134 140 142 137 103 57 64 69 75 94 108 93 83 69 78 74 97 27
264 275 261 252 254 266 254 250 215 167 180 174 168 162 149 144 134 139 145 146 140 127 114 120 112 104 90 112 134 140 132 143 141 135 128 119 80 59 81 58 68 103 107 104 81 73 56 63 91
268 269 260 245 242 251 247 239 210 169 161 144 128 132 140 141 135 129 124 121 120 106 85 88 109 91 87 90 119 137 149 169 158 154 151 154 140 126 82 62 56 85 125 125 104 106 114 114 24
255 255 257 228 220 236 235 218 146 99 90 92 91 98 108 115 123 122 116 119 115 109 93 63 94 90 83 79 72 83 140 175 167 160 163 152 143 130 136 113 218 234 91 94 99 115 158 176 163
248 240 251 269 258 265 243 195 127 109 92 92 97 86 87 101 101 100 104 105 109 116 127 117 120 123 101 111 97 85 54 45 97 142 148 145 147 153 156 152 162 94 41 40 94 77 176 152 137
266 247 254 269 278 276 236 160 141 112 105 100 92 87 83 89 93 91 95 101 102 109 117 134 125 131 142 148 110 103 92 57 24 165 147 145 153 156 127 131 182 172 114 341 117 90 201 134 172
262 291 276 257 273 271 263 241 170 139 128 120 99 81 70 72 92 99 99 99 103 108 120 115 100 106 109 110 114 120 128 124 75 74 85 125 161 159 164 180 194 176 175 207 83 16 278 138 203
218 241 255 268 262 266 266 311 49 98 112 104 95 84 78 70 72 91 97 97 101 105 102 90 81 78 77 78 74 108 115 114 117 126 139 159 182 166 148 161 147 121 115 71 67 307 303 256 249
250 251 253 257 268 271 273 186 72 74 80 80 78 80 72 72 71 75 91 98 97 90 95 98 88 76 86 85 74 103 114 111 129 146 112 68 93 129 147 155 152 148 100 76 97 287 297 288 285
Height
1486 1486 1486 1488 1489 1492 1495 1490 1487 1488 1489 1491 1490 1491 1495 1499 1505 1516 1516 1514 1513 1512 1511 1510 1510 1510 1509 1509 1509 1509 1509 1509 1509 1509 1509 1508 1508 1508 1509 1509 1510 1510 1510 1510 1510 1511 1512 1513 1514
1486 1488 1489 1488 1492 1501 1500 1492 1492 1491 1492 1492 1493 1494 1498 1503 1508 1512 1514 1515 1514 1513 1512 1511 1511 1511 1511 1511 1511 1511 1511 1511 1511 1511 1510 1510 1510 1510 1510 1511 1512 1512 1512 1512 1513 1513 1514 1514 1515
1487 1488 1489 1488 1492 1499 1500 1493 1492 1492 1493 1493 1495 1498 1502 1508 1511 1513 1515 1515 1515 1514 1513 1513 1513 1512 1512 1512 1512 1512 1512 1512 1512 1512 1512 1512 1512 1512 1512 1513 1513 1514 1514 1514 1515 1515 1515 1516 1516
1489 1490 1489 1491 1496 1492 1491 1492 1491 1493 1494 1495 1497 1502 1508 1511 1512 1514 1515 1516 1516 1515 1514 1514 1514 1514 1514 1514 1514 1514 1514 1514 1514 1514 1514 1514 1514 1514 1514 1515 1515 1515 1516 1516 1516 1517 1517 1517 1517
1490 1490 1491 1495 1495 1491 1490 1490 1492 1493 1495 1497 1500 1505 1511 1514 1514 1515 1516 1517 1517 1517 1516 1516 1515 1515 1515 1515 1515 1515 1515 1515 1515 1516 1515 1516 1516 1516 1516 1516 1517 1517 1517 1517 1518 1518 1518 1518 1519
1491 1489 1496 1500 1496 1492 1491 1492 1493 1495 1497 1499 1502 1506 1513 1515 1516 1517 1518 1518 1519 1518 1518 1517 1517 1517 1517 1517 1517 1517 1517 1517 1517 1517 1517 1517 1517 1517 1517 1518 1518 1518 1519 1519 1520 1520 1520 1520 1520
1492 1491 1495 1497 1498 1496 1494 1494 1496 1497 1499 1501 1503 1507 1513 1515 1516 1518 1518 1519 1520 1520 1519 1519 1519 1519 1518 1518 1518 1518 1518 1519 1519 1519 1519 1519 1519 1519 1519 1519 1519 1520 1520 1521 1521 1521 1521 1521 1522
1491 1492 1494 1495 1499 1499 1496 1497 1498 1499 1501 1503 1504 1507 1513 1516 1517 1518 1519 1520 1521 1521 1521 1521 1521 1520 1520 1520 1520 1520 1520 1520 1521 1521 1521 1521 1521 1521 1521 1521 1521 1521 1522 1522 1522 1523 1523 1523 1523
1492 1495 1499 1497 1497 1497 1496 1498 1500 1501 1502 1505 1506 1508 1512 1515 1517 1518 1520 1521 1522 1523 1523 1523 1523 1523 1522 1522 1522 1522 1522 1522 1523 1523 1523 1523 1523 1523 1523 1523 1523 1523 1523 1524 1524 1524 1525 1525 1525
1492 1498 1497 1493 1493 1495 1497 1499 1500 1501 1504 1506 1509 1511 1513 1515 1517 1518 1520 1521 1522 1523 1524 1524 1525 1525 1524 1524 1524 1524 1524 1524 1525 1525 1525 1525 1525 1525 1525 1525 1525 1525 1525 1525 1526 1526 1526 1526 1526
1491 1494 1493 1494 1495 1496 1498 1500 1501 1502 1505 1507 1509 1511 1513 1515 1517 1518 1520 1521 1522 1523 1524 1525 1525 1526 1526 1526 1526 1526 1526 1526 1527 1527 1527 1527 1527 1527 1527 1527 1527 1527 1527 1527 1527 1527 1528 1528 1528
1492 1493 1494 1496 1497 1498 1499 1500 1502 1504 1506 1508 1509 1512 1514 1515 1517 1519 1520 1521 1523 1524 1525 1526 1526 1527 1527 1527 1527 1528 1528 1528 1528 1528 1528 1528 1528 1529 1529 1529 1529 1528 1529 1529 1529 1529 1529 1529 1529
1494 1495 1496 1498 1498 1499 1500 1502 1504 1505 1507 1508 1510 1512 1514 1516 1517 1519 1520 1522 1523 1524 1525 1526 1527 1527 1527 1528 1528 1528 1529 1529 1529 1530 1530 1530 1530 1530 1530 1530 1530 1530 1530 1530 1530 1530 1530 1530 1530
1494 1495 1496 1498 1499 1500 1501 1503 1504 1506 1507 1509 1510 1512 1514 1516 1517 1519 1520 1522 1523 1524 1525 1526 1527 1527 1528 1528 1529 1529 1530 1530 1530 1530 1531 1531 1531 1531 1531 1531 1531 1531 1531 1531 1531 1531 1531 1531 1531
1494 1495 1497 1498 1498 1499 1502 1506 1505 1506 1507 1508 1510 1512 1514 1515 1517 1519 1520 1521 1523 1524 1525 1525 1527 1527 1528 1529 1529 1529 1530 1530 1531 1531 1532 1532 1532 1532 1532 1532 1532 1532 1532 1532 1532 1532 1532 1532 1532
1493 1497 1502 1498 1497 1498 1504 1512 1504 1505 1506 1507 1509 1511 1513 1515 1516 1518 1520 1521 1522 1523 1524 1525 1526 1527 1528 1529 1529 1530 1530 1531 1531 1531 1532 1532 1532 1532 1532 1532 1532 1532 1532 1532 1533 1533 1533 1533 1532
1495 1501 1501 1498 1494 1495 1500 1507 1503 1504 1505 1506 1508 1510 1512 1514 1516 1518 1519 1520 1522 1523 1523 1525 1526 1527 1528 1528 1529 1530 1530 1531 1531 1532 1532 1532 1533 1533 1533 1533 1533 1533 1532 1533 1533 1533 1533 1533 1533
1501 1499 1497 1497 1494 1495 1500 1502 1502 1503 1504 1505 1507 1509 1511 1513 1515 1517 1518 1519 1521 1522 1523 1524 1525 1526 1527 1528 1529 1529 1530 1531 1531 1532 1532 1532 1533 1533 1533 1533 1533 1533 1533 1533 1533 1533 1533 1533 1534
1492 1494 1496 1494 1491 1496 1499 1500 1500 1502 1502 1504 1505 1508 1510 1512 1515 1516 1517 1519 1520 1521 1522 1523 1524 1525 1526 1527 1528 1529 1529 1530 1531 1531 1532 1532 1532 1533 1533 1533 1533 1533 1533 1533 1533 1533 1533 1533 1533
1491 1496 1497 1494 1491 1494 1498 1499 1497 1499 1500 1502 1504 1507 1509 1511 1513 1515 1516 1517 1519 1520 1521 1522 1523 1524 1525 1526 1527 1528 1528 1529 1530 1531 1531 1531 1532 1532 1532 1532 1532 1532 1532 1532 1532 1532 1532 1532 1533
1493 1496 1498 1498 1494 1493 1498 1502 1498 1497 1499 1501 1503 1505 1507 1509 1511 1513 1515 1516 1517 1518 1520 1521 1521 1522 1523 1524 1526 1526 1527 1528 1529 1529 1530 1530 1531 1531 1531 1531 1532 1532 1532 1532 1532 1532 1532 1532 1533
1495 1491 1493 1495 1500 1502 1498 1511 1500 1495 1497 1499 1501 1503 1506 1508 1509 1511 1513 1514 1515 1517 1518 1519 1520 1521 1522 1523 1523 1525 1525 1526 1527 1528 1529 1529 1529 1530 1530 1531 1531 1531 1531 1532 1532 1532 1532 1532 1532
1491 1489 1491 1493 1498 1502 1496 1504 1502 1493 1498 1497 1499 1501 1504 1506 1508 1509 1511 1512 1514 1515 1516 1517 1519 1519 1520 1521 1522 1523 1524 1525 1526 1527 1527 1528 1528 1528 1529 1529 1530 1530 1531 1531 1531 1531 1532 1532 1532
1487 1489 1489 1490 1496 1509 1497 1501 1506 1496 1496 1495 1497 1499 1502 1504 1506 1508 1509 1511 1512 1513 1515 1516 1517 1518 1518 1519 1520 1521 1522 1523 1524 1524 1525 1526 1526 1527 1527 1528 1529 1529 1530 1530 1530 1531 1531 1531 1532
1490 1497 1507 1508 1511 1506 1488 1496 1502 1493 1491 1494 1497 1499 1501 1503 1505 1507 1508 1509 1511 1512 1513 1514 1515 1516 1517 1517 1518 1519 1520 1521 1522 1522 1523 1524 1525 1525 1526 1526 1527 1528 1528 1529 1529 1530 1530 1530 1531
1490 1494 1511 1517 1512 1501 1489 1496 1497 1490 1492 1495 1497 1499 1501 1503 1504 1506 1507 1508 1510 1511 1512 1513 1513 1514 1515 1516 1517 1517 1518 1519 1519 1520 1521 1522 1523 1524 1524 1525 1525 1526 1526 1527 1527 1528 1528 1529 1529
1492 1492 1491 1501 1500 1503 1494 1492 1492 1490 1492 1495 1497 1499 1501 1502 1504 1505 1506 1507 1509 1510 1511 1511 1512 1513 1514 1515 1515 1516 1516 1517 1518 1519 1520 1521 1521 1522 1523 1523 1524 1524 1525 1525 1526 1526 1526 1527 1527
1491 1491 1495 1502 1509 1511 1501 1497 1499 1495 1495 1495 1497 1499 1501 1503 1504 1505 1506 1507 1508 1509 1510 1511 1511 1512 1513 1514 1514 1515 1515 1516 1516 1517 1518 1519 1520 1520 1521 1521 1522 1522 1523 1524 1524 1524 1525 1525 1526
1494 1495 1495 1497 1497 1508 1512 1507 1490 1492 1493 1495 1498 1500 1502 1503 1504 1505 1506 1506 1507 1508 1509 1509 1510 1511 1512 1512 1513 1513 1514 1515 1515 1515 1516 1517 1518 1519 1519 1520 1520 1520 1521 1522 1522 1523 1523 1523 1524
1487 1490 1493 1504 1501 1496 1504 1509 1490 1492 1494 1496 1499 1501 1502 1504 1505 1505 1506 1506 1507 1507 1508 1508 1509 1510 1511 1511 1511 1512 1512 1513 1513 1514 1514 1515 1516 1517 1517 1518 1518 1519 1519 1519 1520 1520 1521 1521 1522